Regional Weather Roundup
Issued by NWS

Home | Current Version | Previous Version | Text Only | Print | Product List | Glossary Off
Versions: 1 2 3 4 5 6 7 8 9 10 11 12 13 14 15 16 17 18 19 20 21 22 23 24 25 26 27 28 29 30 31 32 33 34 35 36 37 38 39 40 41 42 43 44 45 46 47 48 49 50

000
ASUS43 KLSX 070459
RWRMO

WEATHER SUMMARY FOR MISSOURI
NATIONAL WEATHER SERVICE SPRINGFIELD MO
1200 AM CDT TUE JUL 07 2015

NOTE: "FAIR" INDICATES FEW OR NO CLOUDS BELOW 12,000 FEET WITH NO
       SIGNIFICANT WEATHER AND/OR OBSTRUCTIONS TO VISIBILITY.
       CURRENT SKY AND/OR WEATHER CONDITIONS ARE NOT AVAILABLE FOR
       CHILLICOTHE AND FARMINGTON.

MOZ001>031-035>038-043-044-053-054-070600-
...NORTHERN AND WESTERN MISSOURI...

CITY           SKY/WX    TMP DP  RH WIND       PRES   REMARKS
KANSAS CTY INT LGT RAIN  70  69  97 N16G24    29.94S FOG
KANSAS C DTWN  CLOUDY    73  72  96 CALM      29.93S
LEE`S SUMMIT   CLOUDY    72  69  90 N6        29.95R
ST JOSEPH      RAIN      68  66  93 MISG      29.98R FOG
CHILLICOTHE      N/A     73  71  93 N5        29.92R
KIRKSVILLE     CLOUDY    72  69  90 N9        29.91R

$$
MOZ066>068-077>081-088>096-101>105-070600-
...SOUTHWEST MISSOURI...

CITY           SKY/WX    TMP DP  RH WIND       PRES   REMARKS
SPRINGFIELD    CLOUDY    77  72  84 S14       29.96S
JOPLIN         RAIN      70  69  97 E5        29.96F

$$
MOZ032>034-039>042-045>050-055>058-069>072-070600-
...CENTRAL MISSOURI...

CITY           SKY/WX    TMP DP  RH WIND       PRES   REMARKS
COLUMBIA       LGT RAIN  74  72  93 CALM      29.88F
JEFFERSON CITY CLOUDY    80  72  76 S9        29.87S
ROLLA          CLOUDY    77  72  84 S16       29.92S
SEDALIA        CLOUDY    73  70  90 W3        29.94S
OSAGE BEACH    CLOUDY    79  70  73 SW5       29.90S

$$
MOZ051-052-059>065-070600-
...EAST CENTRAL MISSOURI...

CITY           SKY/WX    TMP DP  RH WIND       PRES   REMARKS
ST LOUIS INTL  CLOUDY    82  73  74 S8        29.90F
SPIRIT OF STL  CLOUDY    79  74  84 S8        29.88F
ST CHARLES     CLOUDY    81  74  79 S13       29.88S HAZE

$$
MOZ072>076-082>087-097>100-106>115-070600-
...SOUTH CENTRAL AND SOUTHEAST MISSOURI...

CITY           SKY/WX    TMP DP  RH WIND       PRES   REMARKS
CAPE GIRARDEAU MOCLDY    78  74  87 S12       29.97F
FARMINGTON     CLOUDY    75  73  94 SW10      29.99F
POPLAR BLUFF   CLOUDY    76  71  85 S10       29.98S
WEST PLAINS    CLOUDY    77  71  82 SW8       30.01S

$$



USA.gov is the U.S. government's official web portal to all federal, state and local government web resources and services.